• In Netherlands
  • List of Countries
  • For 7 days
  • Water Temperature
  • Satellite Maps
  • Weather Map
  • Weather Widgets
  • user-avatar
    Login

    Hourly Weather Barra

    Today, 26 June, Monday

    Time Temperature Precipitation Wind Pressure Humidity
    00:00 +17°C° 0 mm 3 mps 752 mmHg 96%
    01:00 +18°C° 0 mm 3 mps 752 mmHg 96%
    02:00 +18°C° 0 mm 3 mps 751 mmHg 95%
    03:00 +18°C° 0 mm 3 mps 751 mmHg 94%
    04:00 +19°C° 0 mm 3 mps 751 mmHg 93%
    05:00 +19°C° 0 mm 3 mps 751 mmHg 92%
    06:00 +19°C° 0 mm 3 mps 751 mmHg 92%
    07:00 +19°C° 0 mm 3 mps 752 mmHg 92%
    08:00 +20°C° 0 mm 4 mps 752 mmHg 86%
    09:00 +22°C° 0 mm 4 mps 752 mmHg 81%
    10:00 +23°C° 0 mm 4 mps 752 mmHg 77%
    11:00 +23°C° 0.1 mm 4 mps 752 mmHg 77%
    12:00 +23°C° 0.1 mm 4 mps 752 mmHg 76%
    13:00 +23°C° 0.1 mm 4 mps 752 mmHg 75%
    14:00 +23°C° 0.1 mm 5 mps 752 mmHg 76%
    15:00 +23°C° 0.1 mm 5 mps 751 mmHg 76%
    16:00 +23°C° 0.1 mm 5 mps 751 mmHg 77%
    17:00 +22°C° 0 mm 4 mps 751 mmHg 82%
    18:00 +21°C° 0 mm 4 mps 752 mmHg 87%
    19:00 +19°C° 0 mm 4 mps 752 mmHg 92%
    20:00 +19°C° 0 mm 4 mps 752 mmHg 91%
    21:00 +19°C° 0 mm 4 mps 752 mmHg 91%
    22:00 +19°C° 0 mm 4 mps 753 mmHg 91%
    23:00 +19°C° 0 mm 4 mps 752 mmHg 89%

    Tomorrow, 27 June, Tuesday

    Time Temperature Precipitation Wind Pressure Humidity
    00:00 +20°C° 0 mm 4 mps 752 mmHg 88%
    01:00 +20°C° 0 mm 4 mps 752 mmHg 87%
    02:00 +20°C° 0 mm 4 mps 752 mmHg 87%
    03:00 +20°C° 0 mm 4 mps 752 mmHg 88%
    04:00 +20°C° 0 mm 4 mps 752 mmHg 88%
    05:00 +20°C° 0 mm 4 mps 752 mmHg 88%
    06:00 +20°C° 0 mm 4 mps 752 mmHg 88%
    07:00 +20°C° 0 mm 4 mps 752 mmHg 88%
    08:00 +21°C° 0 mm 4 mps 752 mmHg 85%
    09:00 +21°C° 0 mm 4 mps 753 mmHg 83%
    10:00 +22°C° 0 mm 4 mps 753 mmHg 80%
    11:00 +22°C° 0 mm 4 mps 752 mmHg 79%
    12:00 +23°C° 0 mm 4 mps 752 mmHg 78%
    13:00 +23°C° 0 mm 4 mps 752 mmHg 77%
    14:00 +23°C° 0.1 mm 4 mps 751 mmHg 79%
    15:00 +22°C° 0.1 mm 4 mps 751 mmHg 80%
    16:00 +22°C° 0.1 mm 4 mps 751 mmHg 82%
    17:00 +21°C° 0 mm 4 mps 751 mmHg 86%
    18:00 +21°C° 0 mm 3 mps 751 mmHg 89%
    19:00 +20°C° 0 mm 3 mps 752 mmHg 93%
    20:00 +20°C° 0.1 mm 3 mps 752 mmHg 93%
    21:00 +20°C° 0.1 mm 3 mps 753 mmHg 94%
    22:00 +20°C° 0.1 mm 3 mps 753 mmHg 94%
    23:00 +20°C° 0.2 mm 3 mps 753 mmHg 95%

    Day after tomorrow, 28 June, Wednesday

    Time Temperature Precipitation Wind Pressure Humidity
    00:00 +20°C° 0.2 mm 3 mps 752 mmHg 96%
    01:00 +19°C° 0.2 mm 3 mps 752 mmHg 97%
    02:00 +19°C° 0.2 mm 3 mps 752 mmHg 97%
    03:00 +19°C° 0.2 mm 3 mps 751 mmHg 97%
    04:00 +20°C° 0.2 mm 3 mps 751 mmHg 97%
    05:00 +19°C° 0.1 mm 3 mps 751 mmHg 97%
    06:00 +19°C° 0.1 mm 3 mps 752 mmHg 97%
    07:00 +19°C° 0.1 mm 3 mps 752 mmHg 97%
    08:00 +21°C° 0.1 mm 3 mps 752 mmHg 92%
    09:00 +22°C° 0.1 mm 4 mps 753 mmHg 88%
    10:00 +25°C° 0.1 mm 4 mps 753 mmHg 83%
    11:00 +25°C° 0.1 mm 4 mps 753 mmHg 80%
    12:00 +25°C° 0.1 mm 4 mps 752 mmHg 77%
    13:00 +26°C° 0.1 mm 4 mps 752 mmHg 74%
    14:00 +26°C° 0.1 mm 4 mps 751 mmHg 76%
    15:00 +25°C° 0.1 mm 3 mps 751 mmHg 77%
    16:00 +25°C° 0.1 mm 3 mps 751 mmHg 79%
    17:00 +24°C° 0.1 mm 3 mps 751 mmHg 84%
    18:00 +22°C° 0.1 mm 3 mps 752 mmHg 89%
    19:00 +21°C° 0.1 mm 3 mps 752 mmHg 95%
    20:00 +21°C° 0.2 mm 3 mps 752 mmHg 95%
    21:00 +21°C° 0.2 mm 3 mps 753 mmHg 95%
    22:00 +21°C° 0.2 mm 3 mps 753 mmHg 95%
    23:00 +21°C° 0.3 mm 3 mps 753 mmHg 95%

    29 June, Thursday

    Time Temperature Precipitation Wind Pressure Humidity
    00:00 +21°C° 0.3 mm 3 mps 752 mmHg 95%
    01:00 +21°C° 0.3 mm 3 mps 752 mmHg 95%
    02:00 +21°C° 0.2 mm 3 mps 752 mmHg 96%
    03:00 +21°C° 0.2 mm 3 mps 751 mmHg 96%
    04:00 +21°C° 0.2 mm 3 mps 751 mmHg 97%
    05:00 +21°C° 0.3 mm 3 mps 751 mmHg 96%
    06:00 +21°C° 0.3 mm 3 mps 752 mmHg 96%
    07:00 +21°C° 0.3 mm 3 mps 752 mmHg 96%
    08:00 +22°C° 0.3 mm 3 mps 752 mmHg 94%
    09:00 +22°C° 0.3 mm 3 mps 753 mmHg 93%
    10:00 +22°C° 0.3 mm 3 mps 753 mmHg 92%
    11:00 +24°C° 0.3 mm 3 mps 752 mmHg 92%
    12:00 +24°C° 0.3 mm 3 mps 752 mmHg 92%
    13:00 +24°C° 0.3 mm 3 mps 751 mmHg 91%
    14:00 +24°C° 0.2 mm 3 mps 751 mmHg 91%
    15:00 +24°C° 0.2 mm 3 mps 751 mmHg 91%
    16:00 +24°C° 0.2 mm 3 mps 750 mmHg 91%
    17:00 +22°C° 0.1 mm 3 mps 751 mmHg 93%
    18:00 +22°C° 0.1 mm 3 mps 751 mmHg 95%
    19:00 +21°C° 0.1 mm 3 mps 752 mmHg 97%
    20:00 +21°C° 0.2 mm 3 mps 752 mmHg 97%
    21:00 +21°C° 0.2 mm 3 mps 752 mmHg 97%
    22:00 +21°C° 0.2 mm 3 mps 752 mmHg 97%
    23:00 +21°C° 0.4 mm 3 mps 752 mmHg 97%

    30 June, Friday

    Time Temperature Precipitation Wind Pressure Humidity
    00:00 +21°C° 0.4 mm 3 mps 752 mmHg 97%
    01:00 +21°C° 0.4 mm 3 mps 751 mmHg 97%
    02:00 +21°C° 0.3 mm 3 mps 751 mmHg 97%
    03:00 +21°C° 0.3 mm 3 mps 751 mmHg 97%
    04:00 +21°C° 0.3 mm 3 mps 751 mmHg 97%
    05:00 +21°C° 0.3 mm 3 mps 751 mmHg 97%
    06:00 +21°C° 0.3 mm 3 mps 751 mmHg 97%
    07:00 +21°C° 0.3 mm 3 mps 752 mmHg 97%
    08:00 +21°C° 0.4 mm 4 mps 752 mmHg 97%
    09:00 +21°C° 0.4 mm 4 mps 752 mmHg 96%
    10:00 +21°C° 0.4 mm 4 mps 753 mmHg 96%
    11:00 +21°C° 0.3 mm 4 mps 752 mmHg 95%
    12:00 +21°C° 0.3 mm 4 mps 752 mmHg 93%
    13:00 +22°C° 0.3 mm 4 mps 751 mmHg 92%
    14:00 +21°C° 0.2 mm 4 mps 751 mmHg 91%
    15:00 +21°C° 0.2 mm 4 mps 751 mmHg 90%
    16:00 +21°C° 0.2 mm 5 mps 751 mmHg 90%
    17:00 +21°C° 0.3 mm 4 mps 751 mmHg 90%
    18:00 +21°C° 0.3 mm 4 mps 752 mmHg 91%
    19:00 +20°C° 0.3 mm 4 mps 752 mmHg 92%
    20:00 +20°C° 0.4 mm 4 mps 752 mmHg 93%
    21:00 +20°C° 0.4 mm 5 mps 753 mmHg 93%
    22:00 +20°C° 0.4 mm 5 mps 753 mmHg 94%
    23:00 +20°C° 0.5 mm 5 mps 753 mmHg 95%

    1 July, Saturday

    Time Temperature Precipitation Wind Pressure Humidity
    00:00 +20°C° 0.5 mm 5 mps 752 mmHg 96%
    01:00 +20°C° 0.5 mm 5 mps 752 mmHg 97%
    02:00 +20°C° 0.5 mm 5 mps 752 mmHg 97%
    03:00 +20°C° 0.5 mm 6 mps 752 mmHg 97%
    04:00 +20°C° 0.5 mm 6 mps 752 mmHg 96%
    05:00 +20°C° 0.3 mm 5 mps 752 mmHg 96%
    06:00 +20°C° 0.3 mm 5 mps 752 mmHg 96%
    07:00 +20°C° 0.3 mm 5 mps 753 mmHg 96%
    08:00 +20°C° 0.2 mm 5 mps 753 mmHg 95%
    09:00 +20°C° 0.2 mm 5 mps 753 mmHg 94%
    10:00 +21°C° 0.2 mm 5 mps 753 mmHg 93%
    11:00 +21°C° 0.2 mm 5 mps 753 mmHg 92%
    12:00 +21°C° 0.2 mm 5 mps 753 mmHg 90%
    13:00 +22°C° 0.2 mm 5 mps 752 mmHg 89%
    14:00 +22°C° 0.1 mm 5 mps 752 mmHg 87%
    15:00 +22°C° 0.1 mm 5 mps 752 mmHg 86%
    16:00 +22°C° 0.1 mm 5 mps 752 mmHg 85%
    17:00 +21°C° 0.1 mm 5 mps 752 mmHg 88%
    18:00 +21°C° 0.1 mm 5 mps 752 mmHg 91%
    19:00 +20°C° 0.1 mm 5 mps 753 mmHg 94%
    20:00 +20°C° 0.2 mm 5 mps 753 mmHg 94%
    21:00 +20°C° 0.2 mm 5 mps 753 mmHg 94%
    22:00 +21°C° 0.2 mm 5 mps 753 mmHg 94%
    23:00 +21°C° 0.3 mm 5 mps 753 mmHg 95%
    Show more